Muskegon, MI

6:02 AM EST on December 16, 2019 (GMT -0500)
Muskegon County

Weather History for KMKG - November, 2019

Change the Weather History Date:

Saturday, November 16, 2019

  Actual Average Record
Temperature  
Mean Temperature 32 °F 40 °F  
Max Temperature 39 °F 46 °F 70 °F (1930)
Min Temperature 25 °F 34 °F 14 °F (1933)
Degree Days  
Heating Degree Days 33 25  
Month to date heating degree days 488 356  
Since 1 July heating degree days 994 979  
Cooling Degree Days 0 0  
Month to date cooling degree days 0 0  
Year to date cooling degree days 640 566  
Moisture  
Dew Point 20 °F    
Average Humidity 64    
Maximum Humidity 75    
Minimum Humidity 52    
Precipitation  
Precipitation 0.00 in 0.12 in 1.28 in (1918)
Month to date precipitation 1.48 1.84  
Year to date precipitation 42.30 29.42  
Snow  
Snow 0.00 in 0.20 in 7.00 in (1973)
Month to date snowfall 10.9 1.7  
Since 1 July snowfall 10.9 1.9  
Since 1 September snowfall 10.9 1.9  
Snow Depth 1.00 in    
Sea Level Pressure  
Sea Level Pressure 30.43 in    
Wind  
Wind Speed 9 mph (East)    
Max Wind Speed 15 mph    
Max Gust Speed 23 mph    
Visibility 10 miles    
Events      
T = Trace of Precipitation, MM = Missing Value Source: NWS Daily Summary

Daily Weather History Graph

Daily Weather History Graph

Search for Another Location

Airport or City:

Astronomy

Nov. 16, 2019 Rise Set
Actual Time 7:38 AM EST 5:20 PM EST
Civil Twilight 7:08 AM EST 5:50 PM EST
Nautical Twilight 6:33 AM EST 6:25 PM EST
Astronomical Twilight 5:59 AM EST 6:59 PM EST
Moon 8:49 PM EST 11:35 AM EST
Length of Visible Light 10h 42m
Length of Day
9h 41m
Waning Gibbous, 82% of the Moon is Illuminated
Nov 16
Waning Gibbous
Nov 19
Last Quarter
Nov 26
New
Dec 4
First Quarter
Dec 12
Full

Hourly Weather History & Observations

Time (EST) Temp. Windchill Dew Point Humidity Pressure Visibility Wind Dir Wind Speed Gust Speed Precip Events Conditions
12:55 AM 28.0 °F 22.8 °F 19.9 °F 72% 30.49 in 10.0 mi NE 4.6 mph - N/A   Clear
1:55 AM 27.0 °F 20.5 °F 19.9 °F 75% 30.48 in 10.0 mi ENE 5.8 mph - N/A   Clear
2:55 AM 27.0 °F 19.5 °F 19.9 °F 75% 30.49 in 10.0 mi ENE 6.9 mph - N/A   Clear
3:55 AM 26.1 °F 18.4 °F 19.0 °F 75% 30.49 in 10.0 mi ENE 6.9 mph - N/A   Clear
4:55 AM 27.0 °F 19.5 °F 19.0 °F 72% 30.49 in 10.0 mi East 6.9 mph - N/A   Clear
5:55 AM 26.1 °F 18.4 °F 19.0 °F 75% 30.50 in 10.0 mi East 6.9 mph - N/A   Scattered Clouds
6:55 AM 26.1 °F 17.6 °F 18.0 °F 71% 30.51 in 10.0 mi East 8.1 mph - N/A   Scattered Clouds
7:55 AM 25.0 °F 16.3 °F 18.0 °F 75% 30.51 in 10.0 mi East 8.1 mph - N/A   Scattered Clouds
8:55 AM 26.1 °F 16.2 °F 18.0 °F 71% 30.52 in 10.0 mi East 10.4 mph - N/A   Mostly Cloudy
9:55 AM 28.9 °F 19.2 °F 19.9 °F 69% 30.52 in 10.0 mi ESE 11.5 mph - N/A   Mostly Cloudy
10:55 AM 32.0 °F 22.5 °F 21.0 °F 64% 30.51 in 10.0 mi East 12.7 mph - N/A   Mostly Cloudy
11:55 AM 35.1 °F 25.9 °F 21.0 °F 57% 30.48 in 10.0 mi ESE 13.8 mph - N/A   Mostly Cloudy
1:55 PM 37.9 °F 32.1 °F 23.0 °F 55% 30.43 in 10.0 mi East 8.1 mph - N/A   Mostly Cloudy
2:55 PM 37.9 °F 32.1 °F 23.0 °F 55% 30.40 in 10.0 mi SE 8.1 mph - N/A   Mostly Cloudy
3:55 PM 37.0 °F 32.4 °F 21.9 °F 54% 30.38 in 10.0 mi East 5.8 mph - N/A   Mostly Cloudy
4:55 PM 35.1 °F 27.9 °F 21.9 °F 59% 30.37 in 10.0 mi ESE 9.2 mph - N/A   Mostly Cloudy
5:55 PM 32.0 °F 25.6 °F 21.0 °F 64% 30.36 in 10.0 mi East 6.9 mph - N/A   Mostly Cloudy
6:55 PM 32.0 °F 23.6 °F 19.0 °F 59% 30.35 in 10.0 mi ESE 10.4 mph - N/A   Mostly Cloudy
7:55 PM 30.0 °F 21.7 °F 18.0 °F 61% 30.35 in 10.0 mi ESE 9.2 mph - N/A   Partly Cloudy
9:55 PM 28.0 °F 19.3 °F 16.0 °F 61% 30.32 in 10.0 mi ESE 9.2 mph - N/A   Partly Cloudy
10:55 PM 27.0 °F 20.5 °F 16.0 °F 63% 30.31 in 10.0 mi East 5.8 mph - N/A   Partly Cloudy
11:55 PM 26.1 °F 17.6 °F 17.1 °F 69% 30.30 in 10.0 mi ESE 8.1 mph - N/A   Clear